Regional Weather Roundup
Issued by NWS

Home | Current Version | Previous Version | Text Only | Print | Product List | Glossary Off
Versions: 1 2 3 4 5 6 7 8 9 10 11 12 13 14 15 16 17 18 19 20 21 22 23 24 25 26 27 28 29 30 31 32 33 34 35 36 37 38 39 40 41 42 43 44 45 46 47 48 49 50

000
ASUS43 KDTX 300401
RWRMI
MICHIGAN HOURLY REGIONAL WEATHER ROUNDUP
NATIONAL WEATHER SERVICE DETROIT/PONTIAC MI
1200 AM EDT TUE JUN 30 2015

NOTE: "FAIR" INDICATES FEW OR NO CLOUDS BELOW 12,000 FEET WITH NO
SIGNIFICANT WEATHER AND/OR OBSTRUCTION TO VISIBILITY.

MIZ047>049-052>055-059>063-066>070-074>076-081>083-300500-
SOUTHEAST LOWER MICHIGAN

CITY           SKY/WX    TMP DP  RH WIND       PRES   REMARKS
ADRIAN         CLOUDY    63  59  87 CALM      29.84F
ALMA           CLEAR     62  57  85 CALM      29.83F
ANN ARBOR      CLOUDY    62  57  83 CALM      29.84F
BAD AXE        CLEAR     61  54  76 S3        29.87S
CARO           CLEAR     57  55  93 CALM      29.85F
DETROIT CITY   CLOUDY    66  59  78 E5        29.85F
DETROIT        CLOUDY    66  57  72 CALM      29.84F
FLINT          CLEAR     63  55  75 SE3       29.85F
GROSSE ILE       N/A     66  61  82 CALM      29.83F
HILLSDALE      CLOUDY    63  63 100 CALM      29.84F
HOWELL         MOCLDY    60  56  89 CALM      29.84F

CITY           SKY/WX    TMP DP  RH WIND       PRES   REMARKS
JACKSON        CLOUDY    63  58  83 CALM      29.84F
LAMBERTVILLE   CLOUDY    65  58  77 CALM      29.83F
LANSING        MOCLDY    63  56  78 E3        29.84F
LAPEER         FAIR      56  54  94 CALM      29.86F
MASON          CLOUDY    61  57  88 CALM      29.84F
MONROE         CLOUDY    64  60  87 CALM      29.82F
MT. CLEMENS    CLOUDY    65  60  84 E3        29.83F
PONTIAC        CLOUDY    63  57  81 NE3       29.84F
PORT HOPE        N/A     63  55  75 S5        29.85S
PORT HURON     CLEAR     57  55  94 CALM      29.86F
TRI CITIES     CLEAR     65  56  72 S7        29.84F
MIDLAND        FAIR      62  57  82 CALM      29.82F
TROY           MOCLDY    67  57  71 E3        29.86F
SAGINAW HB     CLEAR     61  54  77 SE5       29.84F
$$
MIZ043>046-050>051-056>058-064>065-071>073-077>080-300500-
SOUTHWEST LOWER MICHIGAN

CITY           SKY/WX    TMP DP  RH WIND       PRES   REMARKS
BATTLE CREEK   CLOUDY    66  58  75 S3        29.84F
BENTON HARBOR  CLEAR     61  58  90 SE6       29.81S
BIG RAPIDS     CLEAR     60  56  87 W5        29.82S
COLDWATER      CLOUDY    62  57  84 E3        29.82F
FREMONT        MOCLDY    62  60  95 S3        29.81S
HOLLAND        CLEAR     61  57  87 SE6       29.82S
GRAND RAPIDS   PTCLDY    60  57  89 S5        29.83S
IONIA          FAIR      62  57  84 S5        29.83S
KALAMAZOO      CLOUDY    65  58  78 S5        29.83F
LUDINGTON      PTCLDY    64  59  86 CALM      29.80S
MARSHALL       MOCLDY    63  58  84 CALM      29.82F
MOUNT PLEASANT CLEAR     61  56  85 SE3       29.82F
MUSKEGON       CLEAR     62  60  93 SE6       29.81S
SOUTH HAVEN    CLEAR     60  57  91 CALM      29.82S
$$
MIZ016>042-300500-
NORTHERN LOWER MICHIGAN

CITY           SKY/WX    TMP DP  RH WIND       PRES   REMARKS
ALPENA         CLEAR     68  55  63 SW6       29.82S
BEAVER ISLAND  PTCLDY    60  56  88 SW3       29.80S
BELLAIRE       MOCLDY    64  57  78 CALM      29.80S
CADILLAC       CLEAR     56  54  92 CALM      29.83S
CHARLEVOIX     MOCLDY    66  57  72 CALM      29.82F
FRANKFORT      PTCLDY    64  57  78 CALM      29.79S
GAYLORD        CLOUDY    66  58  75 SE3       29.83F
GRAYLING       PTCLDY    55  53  95 CALM      29.84S
HARBOR SPRINGS MOCLDY    62  54  75 CALM      29.80F
HOUGHTON LAKE  CLEAR     57  54  89 CALM      29.84F
MANISTEE       PTCLDY    59  54  82 E3        29.80S
OSCODA         CLEAR     62  56  80 CALM      29.83F
PELLSTON       PTCLDY    58  53  84 NW3       29.80F
ROGERS CITY    PTCLDY    65  54  68 W3        29.82S
TRAVERSE CITY  CLEAR     62  59  90 S3        29.78S
$$
MIZ007>008-015-300500-
EASTERN UPPER MICHIGAN

CITY           SKY/WX    TMP DP  RH WIND       PRES   REMARKS
KINROSS        PTCLDY    61  54  77 SW3       29.80S
MACKINAC ISLAN PTCLDY    63  54  70 S6        29.80S
NEWBERRY       PTCLDY    58  54  86 S7        29.77F
S. S. MARIE    PTCLDY    63  51  65 CALM      29.79S
MUNISING         N/A     64  60  87 CALM      29.75S
$$
MIZ004>006-011>014-085-300500-
CENTRAL UPPER MICHIGAN

CITY           SKY/WX    TMP DP  RH WIND       PRES   REMARKS
MANISTIQUE     CLOUDY    58  56  94 SE5       29.76F
ESCANABA       CLOUDY    63  55  77 CALM      29.76S
MENOMINEE      CLOUDY    64  61  88 SE5       29.74F
SAWYER-GWINN   LGT RAIN  60  58  94 W3        29.77F
$$
MIZ001>003-009>011-084-300500-
WESTERN UPPER MICHIGAN

CITY           SKY/WX    TMP DP  RH WIND       PRES   REMARKS
IRON MOUNTAIN  CLOUDY    61  59  93 NW5       29.77S
HOUGHTON       CLOUDY    59  57  93 N10       29.79S
COPPER HARBOR    N/A     51  50  96 N8        29.79R
IRONWOOD       PTCLDY    57  57 100 W3        29.80R
$$

ABBREVIATIONS USED IN REMARKS
   TC - TEMPERATURE IN CELSIUS
  WCI - WIND CHILL INDEX
   HX - HEAT INDEX
  VSB - VISIBILITY




USA.gov is the U.S. government's official web portal to all federal, state and local government web resources and services.